Home   Weather   Ruda Śląska   Past weeks

Flag for Poland Past Weather in Ruda Śląska, Poland — Yesterday and Last 2 Weeks

Now
57 °F

Thunderstorms. Passing clouds.


Feels Like: 54 °F
Forecast: 50 / 57 °F
Wind: 13 mph from South

Location: Katowice Airport

Current Time: May 23, 2017 at 10:49:50 pm

Latest Report: May 23, 2017 at 10:00 pm


Visibility: 4 mi

Pressure: 29.98 "Hg

Humidity: 94%

Dew Point: 55 °F

Location of Ruda ŚląskaLocation

Past Weather in Ruda Śląska — Graph

°F

Ruda Śląska Temperature Yesterday

Maximum temperature yesterday: 72 °F (at 3:30 pm)
Minimum temperature yesterday: 52 °F (at 5:00 am)
Average temperature yesterday: 61 °F

High & Low Weather Summary for the Past Weeks

 TemperatureHumidityPressure
High81 °F (May 19, 2:00 pm)100% (May 10, 4:30 am)30.39 "Hg (May 10, 4:30 am)
Low25 °F (May 10, 4:30 am)28% (May 11, 4:00 pm)29.65 "Hg (May 12, 3:30 am)
Average55 °F70%30.03 "Hg
* Reported May 8 9:00 pm — May 23 9:30 pm, Ruda Śląska. Weather by CustomWeather, © 2017

Note: Actual official high and low records may vary slightly from our data, if they occured in-between our weather recording intervals... More about our weather records

Advertising

Ruda Śląska Weather History for the Previous 24 Hours

Scroll right to see more
 ConditionsComfort  
Time TempWeatherWind HumidityBarometerVisibility
9:30 pm
Tue, May 23
57 °FThunderstorms. Passing clouds.9 mph94%30.01 "Hg4 mi
9:00 pm57 °FThunderstorms. Partly cloudy.12 mph94%29.98 "Hg2 mi
8:30 pm57 °FThunderstorms. Broken clouds.5 mph94%30.01 "Hg2 mi
8:00 pm59 °FThunderstorms. Partly sunny.10 mph88%29.98 "Hg4 mi
7:30 pm59 °FThundershowers. Scattered clouds.13 mph94%29.98 "HgN/A
7:00 pm63 °FScattered clouds.8 mph83%29.98 "HgN/A
6:30 pm63 °FPassing clouds.10 mph83%29.95 "HgN/A
6:00 pm61 °FThunderstorms. Passing clouds.14 mph88%29.95 "HgN/A
5:30 pm66 °FThundershowers. Scattered clouds.6 mph73%29.95 "HgN/A
5:00 pm72 °FThundershowers. Passing clouds.8 mph50%29.95 "HgN/A
4:30 pm73 °FPassing clouds.9 mph41%29.95 "HgN/A
4:00 pm73 °FPassing clouds.5 mph44%29.95 "HgN/A
3:30 pm73 °FPassing clouds.6 mph44%29.95 "HgN/A
3:00 pm73 °FPassing clouds.3 mph47%29.98 "HgN/A
2:30 pm72 °FThundershowers. Passing clouds.3 mph47%29.98 "HgN/A
2:00 pm72 °FThundershowers. Passing clouds.6 mph50%29.98 "HgN/A
1:30 pm73 °FPassing clouds.2 mph47%29.98 "HgN/A
1:00 pm72 °FPassing clouds.7 mph50%30.01 "HgN/A
12:30 pm72 °FPassing clouds.3 mph50%30.01 "HgN/A
12:00 pm68 °FScattered clouds.6 mph56%30.01 "HgN/A
11:30 am70 °FPassing clouds.2 mph43%30.01 "HgN/A
11:00 am72 °FPassing clouds.3 mph47%30.01 "HgN/A
10:30 am70 °FPassing clouds.2 mph50%30.01 "HgN/A
10:00 am68 °FPassing clouds.3 mph53%30.04 "HgN/A
9:30 am70 °FSunny.2 mph53%30.04 "Hg10 mi
9:00 am68 °FPassing clouds.3 mph56%30.04 "HgN/A
8:30 am66 °FSunny.6 mph60%30.04 "Hg10 mi
8:00 am64 °FPassing clouds.3 mph68%30.04 "HgN/A
7:30 am61 °FSunny.2 mph72%30.01 "Hg10 mi
7:00 am55 °FSunny.1 mph88%30.04 "Hg10 mi
6:30 am50 °FSunny.2 mph94%30.04 "Hg10 mi
6:00 am46 °FSunny.2 mph100%30.04 "Hg10 mi
5:30 am46 °FFog.2 mph93%30.01 "Hg6 mi
5:00 am46 °FFog.2 mph93%30.04 "Hg3 mi
4:30 am46 °FFog.1 mph93%30.04 "HgN/A
4:00 am46 °FFog.1 mph100%30.04 "HgN/A
3:00 am48 °FClear.1 mph94%30.04 "Hg10 mi
2:30 am50 °FClear.2 mph88%30.04 "Hg10 mi
2:00 am50 °FClear.1 mph88%30.04 "Hg10 mi
1:30 am50 °FClear.2 mph94%30.04 "Hg10 mi
1:00 am54 °FClear.1 mph82%30.04 "Hg10 mi
12:30 am54 °FClear.2 mph88%30.04 "Hg10 mi
12:00 am54 °FClear.1 mph88%30.04 "Hg10 mi
11:30 pm
Mon, May 22
54 °FClear.1 mph88%30.07 "Hg10 mi
11:00 pm52 °FClear.1 mph88%30.07 "Hg10 mi
10:30 pm54 °FClear.1 mph82%30.04 "Hg10 mi
10:00 pm55 °FClear.2 mph77%30.07 "Hg10 mi
Weather by CustomWeather, © 2017

See weather overviewHow to use our weather pages